Md. Asadullah

Silver Star - 4,227 Points (11th july)

Stats

» Click to list general statistics » OR, select a date :

General Statistics

Visitors of the poet

Number of visitors of the poet’s mainpage in PoemHunter.Com

Attention : Numbers in this table does not indicate the total hits of poems of the poet, but indicates the hits of the poet’s main page.

Date Hits
08/29/2016 Monday 52
27%
08/28/2016 Sunday 76
40%
08/27/2016 Saturday 46
24%
08/26/2016 Friday 61
32%
08/25/2016 Thursday 40
21%
08/24/2016 Wednesday 68
35%
08/23/2016 Tuesday 52
27%
08/22/2016 Monday 19
10%
08/21/2016 Sunday 27
14%
08/20/2016 Saturday 21
11%
08/19/2016 Friday 23
12%
08/18/2016 Thursday 23
12%
08/17/2016 Wednesday 23
12%
08/16/2016 Tuesday 14
7%
08/15/2016 Monday 154
81%
08/14/2016 Sunday 189
100%
08/13/2016 Saturday 30
15%
08/12/2016 Friday 16
8%
08/11/2016 Thursday 33
17%
08/10/2016 Wednesday 28
14%

Reader rating & num.of MyPoemList’s

Click the captions of columns to change the order.

# Poem Title Submit Date Reader Rating Num.of MyPoemList’s
Rating Num.R.
1 I Want To Be Alone 01/01/2014 10.0 1 1
2 Sounds And A Silence 09/28/2014 10.0 2 1
3 Delhi Zoo Tragedy 09/28/2014 10.0 2 0
4 Religions And Definitions Of God 09/28/2014 10.0 2 0
5 Quran And Microbes 09/29/2014 9.7 3 0
6 Nostalgia Ii 10/12/2014 10.0 2 0
7 Easiest Way To Kill An Enemy 10/15/2014 10.0 3 0
8 Love Perfect One 10/18/2014 10.0 2 0
9 Love For Allah 10/18/2014 10.0 1 0
10 Eyes 10/18/2014 10.0 2 0
11 Honest Opinions 10/19/2014 10.0 2 0
12 Words And Actions 10/19/2014 10.0 2 0
13 Son Of Adam 10/19/2014 10.0 4 0
14 Storm 10/23/2014 10.0 3 0
15 Diwali And Poor Child 10/23/2014 10.0 2 0
16 Yesterday On Bus 10/25/2014 10.0 4 0
17 Distorted Image 10/26/2014 10.0 2 0
18 Evil Eye 10/27/2014 7.5 2 0
19 Perceptions 10/27/2014 10.0 2 0
20 Playful Moon 11/30/2014 10.0 2 0
21 Widow 12/07/2014 10.0 2 0
22 Favour Of God 12/14/2014 10.0 3 0
23 Strings Of Hope 12/14/2014 10.0 4 0
24 Friend And Foe 01/01/2015 10.0 1 0
25 Paths Of Success 01/04/2015 10.0 1 0
26 Charlie Hebdo 01/18/2015 10.0 1 0
27 I Am Not Charlie 01/18/2015 10.0 1 0
28 Bud 07/12/2015 10.0 1 0
29 Wisdom 08/09/2015 10.0 1 0
30 Words 08/16/2015 10.0 1 0
31 Breathe In Breathe Out 12/05/2015 10.0 1 0
32 Test Of 'goodness' 12/05/2015 10.0 1 0
33 - Quran 82. Surah Al-Infitaar (The Cleaving) - 12/25/2015 10.0 1 0
34 Id, Ego And Superego 12/27/2015 8.5 2 0
35 Free Flowing Stream 01/02/2016 10.0 1 0
36 Corporate 01/02/2016 10.0 1 0
37 Success/Failure 01/23/2016 10.0 1 0
38 Like Dust 01/23/2016 10.0 1 0
39 Graveyard 01/26/2016 10.0 1 0
40 Silence 07/06/2016 10.0 1 0
41 Beauty 07/09/2016 10.0 1 0
42 A Truth.... 07/16/2016 8.5 2 0
43 Terrorism Condemned 01/01/2014 9.5 2 0
44 Night Shift 01/01/2014 10.0 1 0
45 Answering Atheism I 01/01/2014 10.0 1 0
46 Urdu - Dosti 01/01/2014 10.0 1 0
47 Urdu - 01/01/2014 10.0 1 0
48 Urdu - In Praise Of Prophet(Pbuh) 01/01/2014 10.0 1 0
49 Secret Sins 01/01/2014 10.0 1 0
50 Injustice And Patience 01/01/2014 10.0 1 0
51 Voice Against Terrorism. 01/01/2014 10.0 1 0
52 Accept Me Or Reject Me 01/01/2014 10.0 1 0
53 If......., Then 01/01/2014 10.0 2 0
54 Friend Found 01/01/2014 10.0 1 0
55 Secret Revealed 01/01/2014 10.0 1 0
56 Extra Initiative 01/01/2014 10.0 1 0
57 Islam The Touchstone 01/01/2014 10.0 1 0
58 Man Or Machine 01/01/2014 10.0 1 0
59 Lmdians 01/01/2014 10.0 1 0
60 Where Are You My Love, Where Are You? 01/01/2014 10.0 1 0
61 *reflection 01/01/2014 10.0 1 0
62 Suicide 01/01/2014 10.0 1 0
63 Cigarette Personified 01/01/2014 10.0 1 0
64 Islam 01/01/2014 10.0 1 0
65 Blessed Birth Of Prophet(Pbuh) 01/01/2014 10.0 1 0
66 Going Into Depression 01/01/2014 10.0 1 0
67 Silence Speaks 01/01/2014 10.0 1 0
68 Nostalgia 01/01/2014 10.0 1 0
69 Dance Of A Fakir 01/01/2014 10.0 1 0
70 I Am Man 01/01/2014 10.0 1 0
71 My Imagination 01/01/2014 10.0 1 0
72 Death 01/01/2014 10.0 1 0
73 Fantasy 01/01/2014 10.0 1 0
74 Jealousy 01/01/2014 10.0 1 0
75 Lie 01/01/2014 10.0 1 0
76 Rugby 01/01/2014 10.0 1 0
77 Salaat 01/01/2014 10.0 1 0
78 Temptation 01/01/2014 -- 0 0
79 Revolution 01/01/2014 10.0 1 0
80 In Search Of Fear 01/01/2014 10.0 1 0
81 Aimless I 01/01/2014 9.0 2 0
82 Bomb Blast 01/01/2014 10.0 1 0
83 Or Is That Me Who Is Sad? 01/01/2014 10.0 1 0
84 Unwritten Soul 01/01/2014 10.0 2 0
85 Have You Ever Seen It Brush? 01/01/2014 10.0 1 0
86 Revealed - My Patriotism 01/01/2014 10.0 1 0
87 Ant 01/01/2014 10.0 1 0
88 Through Windows Of Time 01/01/2014 10.0 1 0
89 A Muslim's Prayer 01/01/2014 10.0 2 0
90 A Meeting With Beloved Bapu(Gandhi) 01/01/2014 10.0 1 0
91 Aimless Iii 01/01/2014 10.0 1 0
92 Poem 01/01/2014 10.0 1 0
93 Way To My Destination 01/01/2014 10.0 1 0
94 Satan's Three Knots 01/01/2014 10.0 1 0
95 Sun And Doomsday 01/01/2014 10.0 1 0
96 Yesterday My Childhood Came 01/01/2014 10.0 1 0
97 What Is Life? 01/01/2014 10.0 1 0
98 All Praise Is Due To Allah 01/01/2014 10.0 2 0
99 Am I Still Alive? 01/01/2014 10.0 1 0
100 Love 01/01/2014 10.0 1 0
101 I Stand 'Tween Right And Wrong. 01/01/2014 10.0 1 0
102 Yes, I Confess... 01/01/2014 10.0 1 0
103 Answering Atheism Ii 01/01/2014 10.0 1 0
104 Blessed Birth Of Jesus(Pbuh) - [islamic Perspective] 01/01/2014 10.0 1 0
105 Elections 2014(Ii) 01/01/2014 10.0 1 0
106 Waliullah - Friend Of Allah(Swt) 01/01/2014 10.0 1 0
107 Aimless Ii 01/01/2014 10.0 1 0
108 My Enemy Let Us Compete 01/01/2014 10.0 1 0
109 Why I'Ve Reached My Destination So Late 01/01/2014 10.0 1 0
110 Inside Job! - 9/11 01/01/2014 10.0 1 0
111 Little By Little I See My Henna Plant Grow 01/01/2014 10.0 1 0
112 Destiny Is Like Shadow 01/01/2014 10.0 1 0
113 Elections 2014(I) 01/01/2014 10.0 1 0
114 Environment Friendly Poem 01/01/2014 10.0 1 0
115 I Doubt! 01/04/2014 10.0 2 0
116 Message On 12 Rabi Ul Awal 01/14/2014 10.0 1 0
117 Dead Leaves 01/18/2014 10.0 1 0
118 Broken Wings And Dead Smiles 01/19/2014 10.0 1 0
119 Truth's Naked Dance 01/26/2014 10.0 1 0
120 Death Will Be Put To Death! 02/02/2014 10.0 1 0
121 Spoken Words 02/02/2014 10.0 1 0
122 Soldier And Author 02/02/2014 10.0 1 0
123 Kill..... 02/08/2014 10.0 1 0
124 Elections 2014(Iii) 02/08/2014 10.0 1 0
125 Standing Amongst Stones... 02/15/2014 10.0 1 0
126 Homo Sapiens 02/15/2014 10.0 1 0
127 My Real Tongue 02/15/2014 10.0 1 0
128 Let's Show The Shiny Part 02/16/2014 10.0 1 0
129 Aimless Iv 02/16/2014 10.0 1 0
130 Two Breaths Of Hellfire 02/16/2014 10.0 3 0
131 Protest Against Double Standards 02/23/2014 10.0 1 0
132 Mercy 02/23/2014 10.0 1 0
133 Honest/Dishonest 03/01/2014 10.0 1 0
134 Burn All These 'Old Age Homes' 03/01/2014 10.0 1 0
135 Never Despise Any Old Book 03/03/2014 10.0 2 0
136 - -Quran 75. The Rising Of The Dead, Resurrection- - 03/05/2014 10.0 1 0
137 Urdu 1 03/02/2014 10.0 1 0
138 God's Mercy Prevails Over His Wrath. 03/01/2014 10.0 1 0
139 I Wished For Thousand Springs 03/01/2014 10.0 1 0
140 Buttering And Oiling 03/01/2014 10.0 1 0
141 Is It Something In Me..... 03/01/2014 10.0 1 0
142 English Translation Of My Urdu 1 Poem 03/14/2014 10.0 1 0
143 Freedom's Journey 03/17/2014 10.0 1 0
144 Declaration 03/17/2014 10.0 1 0
145 Let Me Give You This Shock(Global Warming) 03/15/2014 10.0 1 0
146 My Thoughts On Your Thoughts 03/15/2014 10.0 1 0
147 O East! 03/19/2014 10.0 1 0
148 Holi-Day And Holiday 03/19/2014 10.0 1 0
149 Character Certificates 03/19/2014 10.0 1 0
150 Sun, Moon And My Imagination 03/19/2014 10.0 2 0
151 O Tree Of Art! 03/19/2014 10.0 1 0
152 Effective Decision Making 03/14/2014 10.0 1 0
153 Wise Men! - A Piece Of Advice 03/21/2014 10.0 1 0
154 Pack Of Wolves And An Ass 03/14/2014 5.5 2 0
155 I Know How They Tame Wild Elephants 03/24/2014 10.0 1 0
156 Gandhiji's Statue 03/24/2014 10.0 1 0
157 Equal Doesn'T Mean Identical 03/29/2014 7.5 2 0
158 They All.. 03/31/2014 10.0 1 0
159 Agree Or Disagree 03/29/2014 10.0 2 0
160 Different Perspective 03/29/2014 10.0 1 0
161 Only One 04/02/2014 10.0 2 0
162 Color Unseen 04/02/2014 10.0 2 0
163 East, West, Best 04/02/2014 10.0 3 0
164 Talk/Walk 04/02/2014 10.0 1 0
165 Wall Of Ego 04/06/2014 10.0 2 0
166 It Could Be Within Us 04/06/2014 10.0 2 0
167 I Just Don'T Care 04/06/2014 10.0 1 0
168 Don'T Take Name Of Martyrs 04/20/2014 10.0 2 0
169 Destination 04/26/2014 10.0 2 0
170 Darwin's Theory(Science Or Fairy-Tale) 05/05/2014 8.5 4 0
171 Except One 05/11/2014 7.5 2 0
172 Today 05/11/2014 8.3 3 0
173 Helpless Finger! 06/22/2014 10.0 2 0
174 Ignorant Sufi Is Tool Of The Satan 07/20/2014 10.0 2 0
175 Gaza And The Warning 07/20/2014 10.0 1 0
176 Me, The Loner 07/20/2014 10.0 1 0
177 I Am Gaza, 'Mother Of All Prisons' 07/20/2014 9.3 3 0
178 Steel And Paper 08/03/2014 10.0 2 0
179 Tangible Beliefs 08/10/2014 10.0 2 0
180 Urdu- Ummat-E-Muslimah Ka Haal 08/10/2014 10.0 2 0
181 Foolish Act 08/10/2014 10.0 1 0
182 Wealthiest Of Them All 08/10/2014 10.0 1 0
183 Dealing With Cobra 08/15/2014 10.0 1 0
184 A Prayer 08/15/2014 10.0 1 0
185 Inadequacies Found 08/16/2014 10.0 1 0
186 Me, Me And Me Is What Makes We 08/16/2014 9.5 2 0
187 Inner Peace? 08/17/2014 9.3 3 0
188 She Feared.. 08/30/2014 9.5 2 0
189 Terror 08/30/2014 10.0 2 0
190 Ancient Mythologies And Verses Holy 08/30/2014 10.0 3 0
191 Mr Nice 09/01/2014 10.0 1 0
192 Failures My Friend 09/01/2014 10.0 1 0
193 Strife 09/02/2014 10.0 1 0
194 Misunderstanding 09/03/2014 10.0 1 0
195 Options 09/04/2014 10.0 1 0
196 Hidden Words 09/07/2014 10.0 1 0
197 Set Me Free 09/07/2014 10.0 1 0
198 Pain 09/07/2014 10.0 1 0
199 Pleasure In Pain 09/07/2014 10.0 1 0
200 Give Some Time 09/07/2014 10.0 1 0
201 Prying Eyes 09/07/2014 10.0 2 0
202 Hunting 09/07/2014 10.0 1 0
203 Trick 09/07/2014 10.0 1 0
204 Mad With Anger 09/07/2014 10.0 1 0
205 Drum Of Freedom 09/08/2014 10.0 4 0
206 Who Are They? Who Are They? [isis] 09/08/2014 10.0 1 0
207 In Tiny Heart.. 09/19/2014 10.0 3 0
208 Wake Up! 09/21/2014 10.0 4 0
209 Judgements 09/28/2014 10.0 3 0
[Report Error]